Tracking 27188 objects as of 1-Apr-2023
HD Live streaming from Space Station
objects crossing your sky now

OPS 6431

Track OPS 6431 now!
10-day predictions
OPS 6431 is classified as:


NORAD ID: 8818
Int'l Code: 1976-038A
Perigee: 578.0 km
Apogee: 1,295.1 km
Inclination: 63.3 °
Period: 103.6 minutes
Semi major axis: 7307 km
RCS: Unknown
Launch date: April 30, 1976
Source: United States (US)
Launch site: AIR FORCE WESTERN TEST RANGE (AFWTR)
Your satellite tracking list
Your tracking list is empty




NASA's NSSDC Master Catalog

Two Line Element Set (TLE):
1 08818U 76038A   23032.76730742 0.00000489  00000-0  14837-3 0    05
2 08818  63.3493 273.3310 0490681 164.7724 195.0389 13.89777284    04
Source of the keplerian elements: McCants